Regional Weather Roundup
Issued by NWS

Home | Current Version | Previous Version | Text Only | Print | Product List | Glossary Off
Versions: 1 2 3 4 5 6 7 8 9 10 11 12 13 14 15 16 17 18 19 20 21 22 23 24 25 26 27 28 29 30 31 32 33 34 35 36 37 38 39 40 41 42 43 44 45 46 47 48 49 50

000
ASUS45 KCYS 260810
RWRWY

WYOMING REGIONAL WEATHER ROUNDUP
NATIONAL WEATHER SERVICE CHEYENNE WY
100 AM MST FRI DEC 26 2014

NOTE:  "FAIR" INDICATES FEW OR NO CLOUDS BELOW 12,000 FEET
WITH NO SIGNIFICANT WEATHER AND/OR OBSTRUCTIONS TO VISIBILITY.

WYZ001-260900-
YELLOWSTONE NATIONAL PARK

CITY           SKY/WX    TMP DP  RH WIND       PRES   REMARKS
LK YELLOWSTONE   N/A      6   1  80 VRB5      29.82S WCI  -3
W YELLOWSTONE  NOT AVBL

$$
WYZ002>013-054>058-071-098>099-260900-
NORTHERN WYOMING

CITY           SKY/WX    TMP DP  RH WIND       PRES   REMARKS
JACKSON        CLOUDY    12   9  85 N16       29.81S WCI  -4
CODY           CLOUDY    18  16  93 CALM      29.91S
GREYBULL       LGT SNOW  18  17  96 CALM      29.96F FOG
WORLAND        LGT SNOW  19  16  88 S6        29.96S FOG     WCI  11
SHERIDAN       CLOUDY    19  15  84 NW5       29.98F WCI  12
BUFFALO        CLOUDY    17  15  92 NE5       29.94S WCI  10
GILLETTE       CLOUDY    18  15  88 N6        29.95F WCI  10
HULETT           N/A    N/A N/A N/A MISG        N/A
NEWCASTLE      FAIR      19  14  79 N15       29.94S WCI   5

$$
WYZ014>020-022>026-101>103-260900-
CENTRAL WYOMING

CITY           SKY/WX    TMP DP  RH WIND       PRES   REMARKS
BIG PINEY      CLOUDY     7   3  84 N6        29.77S WCI  -3
PINEDALE       CLOUDY     7   3  85 CALM      29.77S
DUBOIS         NOT AVBL
LANDER         LGT SNOW  18  15  88 NW5       29.88R FOG     WCI  11
RIVERTON       CLOUDY    17  14  88 SE5       29.89F WCI  10
CASPER         LGT SNOW  11   8  88 N8        29.89F FOG     WCI  -1
DOUGLAS        LGT SNOW  17  15  92 NW3       29.92S FOG

$$
WYZ021-027>030-104>119-260900-
SOUTHERN WYOMING

CITY           SKY/WX    TMP DP  RH WIND       PRES   REMARKS
EVANSTON       CLOUDY    15  10  80 NE10      29.75R WCI   2
FORT BRIDGER   LGT SNOW  16  15  95 E8        29.80S WCI   5
ROCK SPRINGS   CLOUDY    13   8  81 NE18G28   29.76S WCI  -4
DIXON          LGT SNOW  22  18  85 E7        29.68S WCI  14
RAWLINS        FLURRIES  13   9  84 NE22      29.75S WCI  -6
SARATOGA       LGT SNOW  16  12  86 SW3       29.71S
LARAMIE        MOCLDY    10   4  76 E8        29.74S WCI  -2
CHEYENNE       CLOUDY    13  10  88 NE7       29.80F FOG     WCI   3
TORRINGTON     LGT SNOW  21  19  92 MISG      29.93S FOG
PINE BLUFFS    CLOUDY    18  14  86 N7        29.86F WCI   8

$$



USA.gov is the U.S. government's official web portal to all federal, state and local government web resources and services.